Date,TemperatureHighF,TemperatureAvgF,TemperatureLowF,DewpointHighF,DewpointAvgF,DewpointLowF,HumidityHigh,HumidityAvg,HumidityLow,PressureMaxIn,PressureMinIn,WindSpeedMaxMPH,WindSpeedAvgMPH,GustSpeedMaxMPH,PrecipitationSumIn
2013-1-1,41.0,38.2,28.4,28.4,23.3,8.6,65,55,43,29.96,29.76,32,17,0,0.00
2013-1-2,33.8,28.5,23.0,17.6,11.7,8.6,59,50,41,30.11,29.94,28,16,0,0.00
2013-1-3,35.6,30.2,24.8,17.6,15.2,12.2,69,54,41,30.14,29.99,22,13,0,0.00
2013-1-4,39.2,36.2,33.8,23.0,20.9,17.6,60,54,45,30.01,29.86,29,17,0,0.00
2013-1-5,44.6,39.0,33.8,21.2,19.9,15.8,56,47,39,30.19,29.94,29,11,0,0.00
2013-1-6,48.2,41.3,35.6,35.6,28.1,21.2,93,61,43,30.18,29.88,24,11,0,0.00
2013-1-7,46.4,42.0,37.4,30.2,25.2,19.4,65,53,34,30.33,29.96,24,10,0,0.00
2013-1-8,50.0,43.1,37.4,33.8,29.8,26.6,70,60,47,30.35,30.24,23,10,0,0.00
2013-1-9,50.0,44.5,37.4,37.4,34.3,28.4,93,68,54,30.32,30.08,30,6,0,0.00
2013-1-10,50.0,45.3,39.2,33.8,23.8,19.4,58,43,32,30.47,30.13,28,13,0,0.00
2013-1-11,44.6,40.3,37.4,44.6,32.8,23.0,100,76,52,30.47,30.02,14,5,0,0.00
2013-1-12,46.4,45.0,42.8,46.4,44.4,42.8,100,98,93,30.10,29.98,15,8,0,0.00
2013-1-13,50.0,46.1,42.8,50.0,45.7,42.8,100,98,93,30.08,29.93,16,4,0,0.00
2013-1-14,57.2,51.2,39.2,53.6,44.1,30.2,100,79,47,30.23,29.83,25,10,0,0.00
2013-1-15,39.2,38.2,35.6,33.8,27.4,23.0,87,66,52,30.27,30.16,15,8,0,0.00
2013-1-16,39.2,35.8,33.8,37.4,34.3,26.6,100,94,70,30.16,29.73,20,9,0,0.00
2013-1-17,44.6,41.3,35.6,35.6,27.3,23.0,87,58,46,30.01,29.83,22,11,0,0.00
2013-1-18,35.6,30.0,26.6,23.0,9.7,1.4,60,44,29,30.43,29.94,22,13,0,0.00
2013-1-19,51.8,40.1,32.0,30.2,23.2,12.2,65,52,35,30.35,29.85,31,18,0,0.00
2013-1-20,53.6,45.4,32.0,32.0,22.4,6.8,66,43,15,29.98,29.58,40,20,0,0.00
2013-1-21,33.8,30.7,28.4,17.6,11.5,5.0,60,45,34,30.03,29.77,29,9,0,0.00
2013-1-22,28.4,21.7,14.0,17.6,0.1,-11.2,64,40,26,30.16,29.77,39,22,0,0.00
2013-1-23,21.2,16.2,12.2,-0.4,-5.0,-9.4,53,39,28,30.20,30.10,29,16,0,0.00
2013-1-24,24.8,18.6,14.0,5.0,-1.3,-7.6,62,43,26,30.35,30.09,43,18,0,0.00
2013-1-25,24.8,19.3,14.0,21.2,6.0,-4.0,93,58,36,30.37,30.02,25,10,0,0.00
2013-1-26,28.4,22.0,17.6,14.0,8.4,3.2,80,58,34,30.32,30.00,32,14,0,0.00
2013-1-27,35.6,27.9,21.2,12.2,8.8,5.0,68,46,30,30.44,30.32,24,12,0,0.00
2013-1-28,37.4,33.6,28.4,35.6,25.5,10.4,93,75,44,30.43,29.93,16,7,0,0.00
2013-1-29,48.2,39.8,37.4,41.0,36.9,33.8,100,89,76,30.08,29.92,22,8,0,0.00
2013-1-30,55.4,47.7,37.4,55.4,46.9,37.4,100,97,88,30.03,29.30,31,9,0,0.00
2013-1-31,57.2,45.7,32.0,57.2,28.4,6.8,100,55,29,29.72,28.97,51,28,0,0.00
2013-2-1,32.0,29.5,24.8,14.0,9.7,3.2,59,44,32,30.17,29.72,38,20,0,0.00
2013-2-2,30.2,25.7,21.2,23.0,10.0,5.0,93,53,34,30.25,30.01,30,12,0,0.00
2013-2-3,32.0,27.4,23.0,24.8,20.3,15.8,93,76,55,30.01,29.72,17,7,0,0.00
2013-2-4,32.0,28.6,24.8,21.2,9.9,5.0,69,46,34,29.92,29.74,31,18,0,0.00
2013-2-5,32.0,30.1,28.4,30.2,26.0,15.8,93,85,55,29.92,29.84,17,7,0,0.00
2013-2-6,41.0,34.5,30.2,30.2,20.0,-0.4,93,60,25,30.30,29.86,29,13,0,0.00
2013-2-7,32.0,29.7,26.6,23.0,8.5,-2.2,69,42,25,30.45,30.28,14,7,0,0.00
2013-2-8,33.8,32.5,28.4,33.8,30.3,23.0,100,93,69,30.27,29.52,34,17,0,0.00
2013-2-9,33.8,28.8,23.0,28.4,16.7,3.2,100,66,30,30.28,29.46,36,22,0,0.00
2013-2-10,39.2,28.3,19.4,28.4,12.0,5.0,81,52,32,30.40,30.27,18,6,0,0.00
2013-2-11,46.4,40.2,33.8,46.4,38.8,24.8,100,95,70,30.27,29.59,13,3,0,0.00
2013-2-12,46.4,42.8,39.2,41.0,26.6,23.0,87,54,43,29.89,29.63,28,15,0,0.00
2013-2-13,46.4,39.1,33.8,33.8,25.3,19.4,93,59,42,29.89,29.62,15,6,0,0.00
2013-2-14,48.2,39.8,35.6,35.6,29.5,21.2,93,70,37,29.93,29.64,16,8,0,0.00
2013-2-15,53.6,44.3,37.4,39.2,33.5,24.8,81,67,40,29.94,29.82,23,8,0,0.00
2013-2-16,44.6,36.6,32.0,35.6,25.1,12.2,93,65,44,29.89,29.67,23,12,0,0.00
2013-2-17,32.0,27.5,17.6,14.0,3.5,-2.2,48,37,25,29.93,29.59,45,28,0,0.00
2013-2-18,37.4,27.1,17.6,14.0,4.0,-0.4,50,39,24,30.16,29.94,36,18,0,0.00
2013-2-19,46.4,40.8,32.0,44.6,30.0,12.2,100,67,38,30.14,29.59,34,12,0,0.00
2013-2-20,41.0,32.2,26.6,24.8,12.3,6.8,56,44,35,29.92,29.64,38,22,0,0.00
2013-2-21,35.6,29.1,24.8,14.0,11.2,8.6,59,48,38,30.23,29.90,37,22,0,0.00
2013-2-22,37.4,32.5,26.6,30.2,21.9,14.0,75,65,56,30.35,30.20,15,8,0,0.00
2013-2-23,39.2,36.4,35.6,39.2,35.5,30.2,100,97,75,30.21,29.80,25,12,0,0.00
2013-2-24,46.4,40.5,35.6,39.2,32.0,21.2,100,74,49,29.89,29.65,37,17,0,0.00
2013-2-25,46.4,39.9,33.8,30.2,24.7,21.2,70,56,40,30.16,29.90,28,9,0,0.00
2013-2-26,44.6,38.5,35.6,35.6,32.3,28.4,93,79,61,30.22,29.85,21,9,0,0.00
2013-2-27,48.2,41.9,37.4,46.4,39.3,35.6,100,92,66,29.85,29.43,28,15,0,0.00
2013-2-28,51.8,45.9,41.0,39.2,33.8,28.4,81,64,46,29.54,29.44,21,8,0,0.00
2013-3-1,46.4,41.2,37.4,32.0,28.0,24.8,75,60,43,29.70,29.53,29,16,0,0.00
2013-3-2,41.0,36.8,32.0,30.2,24.0,21.2,87,61,49,29.71,29.62,25,15,0,0.00
2013-3-3,41.0,33.4,30.2,24.8,18.4,15.8,75,55,39,29.69,29.57,30,19,0,0.00
2013-3-4,41.0,34.4,28.4,21.2,18.2,14.0,64,53,39,29.83,29.67,39,23,0,0.00
2013-3-5,50.0,40.1,32.0,30.2,24.0,19.4,65,54,37,29.93,29.83,28,11,0,0.00
2013-3-6,42.8,40.0,37.4,37.4,32.0,26.6,87,73,61,29.93,29.78,37,18,0,0.00
2013-3-7,39.2,36.4,33.8,33.8,30.8,26.6,93,80,65,30.01,29.84,33,19,0,0.00
2013-3-8,42.8,35.5,32.0,37.4,31.7,24.8,100,88,53,30.10,29.93,28,18,0,0.00
2013-3-9,55.4,43.8,37.4,33.8,22.9,14.0,81,47,21,30.25,30.10,23,11,0,0.00
2013-3-10,46.4,40.2,35.6,35.6,33.9,32.0,93,79,62,30.32,30.22,15,7,0,0.00
2013-3-11,53.6,46.7,39.2,50.0,41.8,35.6,94,83,67,30.26,30.02,22,8,0,0.00
2013-3-12,55.4,51.3,46.4,53.6,48.4,37.4,100,90,66,30.02,29.58,37,19,0,0.00
2013-3-13,51.8,45.2,41.0,35.6,27.7,17.6,76,53,28,29.81,29.69,25,13,0,0.00
2013-3-14,42.8,35.5,30.2,28.4,10.3,-0.4,61,37,19,29.89,29.76,40,24,0,0.00
2013-3-15,48.2,38.4,32.0,30.2,16.8,5.0,57,42,28,29.91,29.63,30,16,0,0.00
2013-3-16,42.8,37.9,35.6,32.0,22.6,17.6,87,55,45,29.84,29.70,28,9,0,0.00
2013-3-17,39.2,34.7,30.2,30.2,17.0,6.8,81,51,30,30.23,29.84,29,15,0,0.00
2013-3-18,35.6,31.9,28.4,33.8,18.1,5.0,100,60,32,30.35,29.98,20,11,0,0.00
2013-3-19,44.6,38.2,33.8,37.4,34.6,28.4,100,88,61,29.97,29.61,24,13,0,0.00
2013-3-20,46.4,39.6,33.8,30.2,17.4,12.2,70,42,27,29.82,29.70,33,17,0,0.00
2013-3-21,41.0,36.0,33.8,28.4,16.1,8.6,81,46,30,29.77,29.54,30,12,0,0.00
2013-3-22,41.0,36.1,30.2,23.0,15.4,12.2,60,44,33,29.80,29.66,32,15,0,0.00
2013-3-23,46.4,39.9,35.6,23.0,18.0,14.0,56,42,31,29.86,29.72,33,19,0,0.00
2013-3-24,48.2,40.4,33.8,30.2,20.6,17.6,65,46,32,29.87,29.62,24,10,0,0.00
2013-3-25,41.0,38.9,37.4,37.4,31.4,26.6,93,75,61,29.65,29.39,20,9,0,0.00
2013-3-26,51.8,44.5,39.2,33.8,26.6,21.2,81,51,32,29.78,29.51,23,10,0,0.00
2013-3-27,53.6,45.4,39.2,30.2,23.3,15.8,57,43,26,29.89,29.76,30,16,0,0.00
2013-3-28,42.8,39.5,39.2,30.2,28.5,28.4,65,65,57,29.89,29.88,25,10,0,0.00
2013-3-29,53.6,47.9,39.2,30.2,26.5,23.0,65,45,30,30.05,29.89,26,14,0,0.00
2013-3-30,60.8,49.2,41.0,35.6,26.5,14.0,66,45,17,30.07,29.95,24,10,0,0.00
2013-3-31,55.4,47.5,39.2,46.4,36.7,28.4,100,69,38,30.05,29.66,26,9,0,0.00
2013-4-1,62.6,50.3,39.2,46.4,37.8,10.4,100,66,27,29.83,29.50,40,15,0,0.00
2013-4-2,44.6,39.0,33.8,15.8,10.2,5.0,44,31,21,30.01,29.83,34,19,0,0.00
2013-4-3,46.4,39.8,35.6,14.0,9.4,6.8,38,29,20,30.21,30.00,38,21,0,0.00
2013-4-4,51.8,41.7,35.6,33.8,20.2,12.2,66,43,27,30.31,30.02,24,10,0,0.00
2013-4-5,62.6,50.3,42.8,33.8,23.5,12.2,70,40,15,30.02,29.59,37,13,0,0.00
2013-4-6,53.6,43.3,37.4,32.0,15.4,3.2,66,36,14,30.24,29.91,29,13,0,0.00
2013-4-7,53.6,47.1,41.0,44.6,35.3,23.0,82,64,43,30.24,29.90,37,14,0,0.00
2013-4-8,75.2,57.8,46.4,48.2,43.0,37.4,87,62,27,29.96,29.88,18,6,0,0.00
2013-4-9,82.4,66.4,48.2,51.8,41.5,28.4,94,51,14,29.92,29.77,33,10,0,0.00
2013-4-10,71.6,60.5,53.6,57.2,48.1,41.0,100,65,40,29.85,29.72,21,7,0,0.00
2013-4-11,60.8,55.4,46.4,57.2,49.7,39.2,100,82,63,29.97,29.67,23,8,0,0.00
2013-4-12,46.4,43.7,41.0,42.8,40.6,35.6,100,89,71,29.97,29.64,25,14,0,0.00
2013-4-13,57.2,48.5,41.0,44.6,38.2,32.0,93,70,38,29.89,29.66,20,8,0,0.00
2013-4-14,57.2,52.7,48.2,46.4,32.0,21.2,87,49,26,30.14,29.88,32,12,0,0.00
2013-4-15,57.2,49.7,44.6,42.8,32.6,28.4,82,53,33,30.30,30.14,16,8,0,0.00
2013-4-16,60.8,54.4,46.4,53.6,47.0,33.8,88,76,62,30.30,30.02,33,12,0,0.00
2013-4-17,71.6,62.0,57.2,57.2,44.0,32.0,88,57,25,30.19,30.01,17,8,0,0.00
2013-4-18,59.0,54.9,50.0,55.4,44.3,35.6,94,69,42,30.27,30.03,30,11,0,0.00
2013-4-19,69.8,60.6,53.6,60.8,58.0,53.6,100,92,73,30.01,29.56,30,14,0,0.00
2013-4-20,62.6,55.1,48.2,59.0,34.3,21.2,94,50,23,30.19,29.55,30,17,0,0.00
2013-4-21,55.4,45.9,39.2,32.0,21.4,15.8,57,39,23,30.54,30.21,26,11,0,0.00
2013-4-22,53.6,47.8,42.8,37.4,33.3,28.4,71,58,38,30.57,30.41,26,11,0,0.00
2013-4-23,53.6,46.6,42.8,41.0,37.6,32.0,93,71,61,30.42,30.03,24,13,0,0.00
2013-4-24,64.4,53.8,44.6,51.8,44.5,39.2,94,72,49,30.03,29.75,25,11,0,0.00
2013-4-25,68.0,56.4,48.2,53.6,30.4,17.6,94,42,15,30.17,29.77,34,13,0,0.00
2013-4-26,68.0,57.9,48.2,42.8,33.1,24.8,82,42,21,30.31,30.17,21,7,0,0.00
2013-4-27,69.8,58.1,48.2,37.4,27.2,17.6,51,33,15,30.34,30.17,16,8,0,0.00
2013-4-28,68.0,58.0,50.0,44.6,37.0,24.8,76,48,22,30.22,30.11,25,7,0,0.00
2013-4-29,57.2,55.9,53.6,50.0,46.5,42.8,77,71,63,30.15,30.09,15,8,0,0.00
2013-4-30,66.2,57.2,51.8,48.2,37.7,17.6,88,56,16,30.24,30.12,21,10,0,0.00
2013-5-1,66.2,56.5,48.2,44.6,37.9,30.2,67,50,38,30.40,30.24,20,9,0,0.00
2013-5-2,69.8,59.5,50.0,48.2,43.4,37.4,94,59,35,30.40,30.22,17,5,0,0.00
2013-5-3,66.2,56.7,50.0,46.4,39.7,33.8,82,55,30,30.36,30.26,21,8,0,0.00
2013-5-4,69.8,55.8,50.0,46.4,42.6,39.2,82,63,35,30.29,30.14,20,10,0,0.00
2013-5-5,62.6,52.7,46.4,46.4,40.2,35.6,82,64,39,30.22,30.11,21,8,0,0.00
2013-5-6,66.2,56.1,46.4,51.8,47.1,42.8,93,73,52,30.18,30.04,18,6,0,0.00
2013-5-7,68.0,59.5,53.6,59.0,53.9,48.2,94,82,64,30.08,29.97,20,7,0,0.00
2013-5-8,66.2,58.8,55.4,62.6,57.0,51.8,100,94,77,30.02,29.87,21,10,0,0.00
2013-5-9,68.0,59.6,55.4,60.8,56.4,51.8,100,90,60,29.93,29.78,15,6,0,0.00
2013-5-10,80.6,68.5,57.2,59.0,55.2,48.2,94,65,37,29.88,29.80,21,6,0,0.00
2013-5-11,68.0,64.0,60.8,64.4,61.7,57.2,100,92,77,29.80,29.60,22,7,0,0.00
2013-5-12,68.0,63.3,53.6,62.6,40.4,21.2,100,47,21,29.84,29.54,29,15,0,0.00
2013-5-13,57.2,52.3,48.2,32.0,26.3,19.4,54,37,25,30.01,29.84,28,14,0,0.00
2013-5-14,62.6,53.5,44.6,42.8,28.3,15.8,66,42,16,30.03,29.90,22,11,0,0.00
2013-5-15,68.0,60.5,53.6,59.0,46.6,32.0,83,61,39,29.98,29.57,23,9,0,0.00
2013-5-16,78.8,70.7,64.4,59.0,49.3,41.0,68,48,29,29.71,29.59,22,7,0,0.00
2013-5-17,73.4,66.9,60.8,48.2,39.3,33.8,46,37,25,30.09,29.71,20,8,0,0.00
2013-5-18,68.0,61.1,55.4,53.6,49.5,41.0,82,67,42,30.21,30.10,12,5,0,0.00
2013-5-19,60.8,58.1,57.2,59.0,56.2,46.4,100,94,59,30.23,30.12,16,8,0,0.00
2013-5-20,78.8,67.9,57.2,66.2,62.3,57.2,100,84,61,30.12,29.84,18,5,0,0.00
2013-5-21,86.0,76.0,66.2,68.0,65.9,64.4,94,73,51,29.87,29.70,28,7,0,0.00
2013-5-22,78.8,66.9,57.2,69.8,62.3,57.2,100,86,69,29.84,29.71,23,6,0,0.00
2013-5-23,77.0,68.9,64.4,68.0,65.3,62.6,100,89,69,29.79,29.67,25,11,0,0.00
2013-5-24,68.0,58.0,48.2,64.4,54.8,42.8,100,89,77,29.85,29.57,28,13,0,0.00
2013-5-25,55.4,50.3,46.4,46.4,41.6,37.4,93,73,54,29.90,29.80,39,21,0,0.00
2013-5-26,68.0,57.9,50.0,39.2,34.9,30.2,66,45,26,30.09,29.86,45,22,0,0.00
2013-5-27,75.2,64.7,53.6,42.8,35.3,30.2,51,35,21,30.14,29.98,20,7,0,0.00
2013-5-28,69.8,61.6,57.2,59.0,52.0,39.2,100,74,35,30.11,30.03,12,3,0,0.00
2013-5-29,84.2,69.0,59.0,66.2,61.7,59.0,100,80,54,30.03,29.88,13,4,0,0.00
2013-5-30,93.2,82.0,71.6,68.0,63.6,59.0,83,56,32,29.99,29.91,20,7,0,0.00
2013-5-31,95.0,83.8,75.2,68.0,63.9,60.8,73,52,34,30.00,29.85,20,6,0,0.00
2013-6-1,89.6,81.1,71.6,68.0,65.4,60.8,78,60,43,29.90,29.76,22,8,0,0.00
2013-6-2,86.0,77.5,69.8,69.8,65.6,64.4,83,67,48,29.81,29.64,25,10,0,0.00
2013-6-3,78.8,73.1,68.0,69.8,66.8,50.0,100,82,46,29.75,29.67,15,6,0,0.00
2013-6-4,77.0,69.2,59.0,48.2,40.2,35.6,52,36,22,30.00,29.79,23,13,0,0.00
2013-6-5,75.2,67.3,59.0,55.4,43.9,35.6,82,44,29,30.09,30.00,18,7,0,0.00
2013-6-6,71.6,65.5,59.0,60.8,56.1,44.6,94,74,38,30.05,29.92,17,6,0,0.00
2013-6-7,62.6,60.9,59.0,62.6,60.8,59.0,100,100,94,29.92,29.59,26,9,0,0.00
2013-6-8,78.8,68.9,57.2,62.6,59.9,55.4,100,75,54,29.93,29.48,25,10,0,0.00
2013-6-9,82.4,73.3,64.4,62.6,58.1,51.8,94,62,37,30.06,29.93,16,5,0,0.00
2013-6-10,69.8,65.8,62.6,66.2,64.0,62.6,100,94,78,30.05,29.75,16,6,0,0.00
2013-6-11,82.4,72.9,62.6,69.8,63.5,57.2,100,75,48,29.75,29.48,31,11,0,0.00
2013-6-12,77.0,72.2,66.2,59.0,52.1,48.2,64,50,36,29.73,29.59,34,16,0,0.00
2013-6-13,68.0,64.6,57.2,62.6,58.5,55.4,100,81,64,29.73,29.36,29,8,0,0.00
2013-6-14,75.2,63.5,55.4,57.2,52.7,48.2,94,70,43,29.77,29.34,26,12,0,0.00
2013-6-15,82.4,73.7,64.4,55.4,50.0,42.8,73,47,26,29.87,29.78,22,9,0,0.00
2013-6-16,82.4,75.4,66.2,64.4,55.8,48.2,69,51,32,29.88,29.63,28,8,0,0.00
2013-6-17,86.0,78.0,69.8,66.2,63.8,57.2,88,63,40,29.79,29.69,21,6,0,0.00
2013-6-18,80.6,71.3,66.2,69.8,65.8,62.6,94,83,65,29.79,29.69,16,5,0,0.00
2013-6-19,78.8,70.0,60.8,64.4,51.5,35.6,100,57,21,30.06,29.77,17,8,0,0.00
2013-6-20,80.6,72.0,64.4,57.2,53.1,50.0,64,52,37,30.16,30.06,24,8,0,0.00
2013-6-21,84.2,73.9,66.2,57.2,51.6,44.6,60,46,35,30.19,30.10,21,10,0,0.00
2013-6-22,84.2,74.4,66.2,62.6,54.9,48.2,64,51,35,30.15,30.02,22,7,0,0.00
2013-6-23,86.0,78.0,69.8,71.6,65.5,57.2,83,66,48,30.07,29.93,23,9,0,0.00
2013-6-24,95.0,83.1,73.4,71.6,67.6,55.4,89,63,26,29.96,29.79,20,6,0,0.00
2013-6-25,93.2,84.0,75.2,68.0,65.1,60.8,78,54,34,29.88,29.66,23,7,0,0.00
2013-6-26,89.6,82.3,77.0,69.8,65.3,60.8,78,57,40,29.71,29.64,18,9,0,0.00
2013-6-27,86.0,77.9,73.4,73.4,70.5,68.0,94,78,58,29.70,29.45,29,7,0,0.00
2013-6-28,87.8,79.2,75.2,73.4,69.0,62.6,94,72,51,29.45,29.33,20,10,0,0.00
2013-6-29,86.0,77.8,71.6,71.6,67.9,62.6,88,72,48,29.58,29.37,24,8,0,0.00
2013-6-30,86.0,77.1,71.6,73.4,71.7,69.8,94,84,62,29.80,29.58,24,6,0,0.00
2013-7-1,77.0,74.9,73.4,75.2,72.4,69.8,94,92,83,29.94,29.79,18,7,0,0.00
2013-7-2,84.2,77.3,73.4,75.2,72.3,71.6,94,85,70,30.06,29.94,21,9,0,0.00
2013-7-3,84.2,78.4,73.4,75.2,72.1,68.0,94,81,66,30.12,30.04,17,7,0,0.00
2013-7-4,89.6,82.1,75.2,77.0,72.8,68.0,94,75,52,30.13,30.00,18,8,0,0.00
2013-7-5,93.2,84.5,77.0,73.4,71.0,66.2,89,65,43,30.09,29.93,17,8,0,0.00
2013-7-6,95.0,87.4,78.8,73.4,70.0,64.4,79,58,38,30.01,29.87,21,9,0,0.00
2013-7-7,95.0,87.9,80.6,73.4,69.9,62.6,70,56,41,29.92,29.76,22,9,0,0.00
2013-7-8,91.4,82.6,75.2,71.6,65.7,60.8,78,58,36,29.91,29.81,18,9,0,0.00
2013-7-9,89.6,83.0,75.2,71.6,67.7,64.4,74,61,43,29.94,29.84,18,5,0,0.00
2013-7-10,87.8,81.8,75.2,75.2,71.1,66.2,89,71,49,29.89,29.66,20,8,0,0.00
2013-7-11,87.8,81.7,78.8,73.4,68.3,60.8,83,65,43,29.80,29.67,22,7,0,0.00
2013-7-12,78.8,74.0,68.0,71.6,65.1,60.8,100,74,54,29.99,29.80,16,8,0,0.00
2013-7-13,77.0,71.9,68.0,73.4,70.2,66.2,100,95,83,30.16,29.99,22,10,0,0.00
2013-7-14,93.2,83.3,71.6,75.2,70.5,66.2,100,69,41,30.21,30.08,18,6,0,0.00
2013-7-15,96.8,88.3,80.6,73.4,70.3,66.2,74,56,37,30.11,29.97,17,7,0,0.00
2013-7-16,95.0,88.6,80.6,73.4,64.7,59.0,74,47,30,30.06,29.97,20,9,0,0.00
2013-7-17,98.6,88.6,78.8,71.6,67.6,60.8,70,51,30,30.05,29.92,13,4,0,0.00
2013-7-18,100.4,91.0,82.4,73.4,68.7,60.8,66,50,29,29.93,29.79,16,6,0,0.00
2013-7-19,98.6,91.3,84.2,75.2,72.3,68.0,70,54,37,29.83,29.62,20,8,0,0.00
2013-7-20,95.0,87.3,80.6,75.2,69.7,59.0,74,57,34,29.71,29.56,21,11,0,0.00
2013-7-21,87.8,81.4,77.0,71.6,64.9,57.2,83,58,37,29.84,29.70,16,7,0,0.00
2013-7-22,80.6,76.3,73.4,75.2,73.0,69.8,100,90,79,29.84,29.69,23,8,0,0.00
2013-7-23,89.6,80.6,75.2,77.0,71.7,66.2,100,77,46,29.69,29.41,18,7,0,0.00
2013-7-24,84.2,79.2,71.6,71.6,63.9,53.6,89,60,42,29.81,29.49,23,11,0,0.00
2013-7-25,71.6,66.1,64.4,59.0,54.2,50.0,83,66,52,29.94,29.81,21,13,0,0.00
2013-7-26,84.2,73.4,64.4,69.8,60.5,57.2,83,65,42,29.93,29.85,17,8,0,0.00
2013-7-27,84.2,77.3,71.6,68.0,63.2,57.2,88,64,42,29.93,29.84,20,7,0,0.00
2013-7-28,80.6,75.3,69.8,73.4,67.9,64.4,94,79,58,29.87,29.80,18,5,0,0.00
2013-7-29,87.8,78.8,71.6,71.6,62.3,42.8,94,62,23,29.97,29.84,18,7,0,0.00
2013-7-30,84.2,76.0,68.0,57.2,53.7,50.0,64,47,32,30.03,29.95,20,9,0,0.00
2013-7-31,84.2,76.6,68.0,62.6,57.7,53.6,65,53,37,30.04,29.92,17,5,0,0.00
2013-8-1,77.0,72.8,68.0,69.8,65.6,60.8,94,79,61,29.93,29.72,18,7,0,0.00
2013-8-2,86.0,77.7,69.8,69.8,61.4,53.6,94,61,35,29.79,29.68,22,9,0,0.00
2013-8-3,80.6,75.2,71.6,66.2,61.0,55.4,83,62,47,29.80,29.70,17,8,0,0.00
2013-8-4,80.6,74.9,68.0,62.6,54.1,46.4,73,50,30,29.84,29.71,24,11,0,0.00
2013-8-5,82.4,71.8,64.4,57.2,47.3,39.2,64,44,26,29.93,29.84,21,9,0,0.00
2013-8-6,82.4,73.4,64.4,62.6,56.3,48.2,77,57,30,30.01,29.92,16,6,0,0.00
2013-8-7,80.6,74.5,71.6,68.0,62.4,57.2,83,67,51,30.03,29.95,22,9,0,0.00
2013-8-8,84.2,75.9,71.6,73.4,70.9,68.0,94,85,66,29.96,29.88,21,8,0,0.00
2013-8-9,87.8,79.3,75.2,75.2,73.2,69.8,94,83,55,29.90,29.66,21,11,0,0.00
2013-8-10,86.0,78.8,71.6,71.6,60.2,51.8,78,55,35,29.93,29.73,22,11,0,0.00
2013-8-11,84.2,75.0,66.2,66.2,53.8,46.4,78,49,30,30.01,29.89,20,6,0,0.00
2013-8-12,80.6,74.3,71.6,71.6,67.9,62.6,89,81,58,29.92,29.86,12,3,0,0.00
2013-8-13,78.8,75.2,69.8,69.8,66.2,64.4,94,74,61,29.64,29.57,23,5,0,0.00
2013-8-14,75.2,69.3,62.6,68.0,50.7,44.6,88,53,38,29.93,29.63,31,17,0,0.00
2013-8-15,78.8,71.1,62.6,59.0,48.0,39.2,68,46,27,30.03,29.93,17,7,0,0.00
2013-8-16,84.2,74.5,66.2,60.8,53.0,44.6,68,49,28,30.09,30.00,13,3,0,0.00
2013-8-17,86.0,75.3,66.2,60.8,54.8,48.2,68,50,30,30.15,30.08,10,3,0,0.00
2013-8-18,77.0,72.5,69.8,66.2,61.7,51.8,83,70,44,30.15,30.01,10,3,0,0.00
2013-8-19,82.4,74.8,68.0,64.4,59.8,53.6,78,61,42,30.02,29.89,14,6,0,0.00
2013-8-20,89.6,79.0,69.8,69.8,63.2,55.4,88,61,31,29.99,29.91,15,6,0,0.00
2013-8-21,91.4,81.1,71.6,71.6,63.9,53.6,88,60,29,30.04,29.93,17,4,0,0.00
2013-8-22,80.6,77.3,73.4,73.4,70.9,68.0,94,81,69,29.94,29.75,22,3,0,0.00
2013-8-23,82.4,76.9,71.6,71.6,56.9,46.4,89,53,30,29.98,29.75,26,11,0,0.00
2013-8-24,82.4,71.8,64.4,59.0,52.1,44.6,68,51,28,30.24,29.98,18,8,0,0.00
2013-8-25,84.2,74.9,64.4,60.8,54.3,44.6,88,52,26,30.27,30.10,17,6,0,0.00
2013-8-26,84.2,76.8,69.8,69.8,60.0,53.6,78,56,45,30.11,29.80,21,10,0,0.00
2013-8-27,86.0,78.0,73.4,69.8,67.3,62.6,83,71,45,29.80,29.69,25,14,0,0.00
2013-8-28,82.4,76.8,75.2,73.4,71.5,68.0,89,84,62,29.78,29.72,12,4,0,0.00
2013-8-29,78.8,74.7,71.6,71.6,67.3,62.6,94,78,61,29.91,29.76,18,5,0,0.00
2013-8-30,86.0,77.5,69.8,71.6,66.1,60.8,83,69,43,29.92,29.72,16,8,0,0.00
2013-8-31,86.0,79.9,75.2,73.4,71.0,69.8,83,75,62,29.75,29.65,18,9,0,0.00
2013-9-1,86.0,79.8,75.2,75.2,72.1,69.8,89,78,62,29.73,29.67,15,6,0,0.00
2013-9-2,82.4,78.0,73.4,75.2,73.5,68.0,94,86,74,29.69,29.58,12,3,0,0.00
2013-9-3,82.4,76.4,71.6,73.4,64.5,53.6,94,70,39,29.77,29.59,22,8,0,0.00
2013-9-4,84.2,74.5,66.2,57.2,54.7,46.4,68,52,32,29.87,29.77,21,12,0,0.00
2013-9-5,78.8,73.4,66.2,59.0,50.0,37.4,68,46,25,30.04,29.80,23,11,0,0.00
2013-9-6,75.2,65.2,57.2,50.0,42.4,37.4,59,44,27,30.14,30.02,20,6,0,0.00
2013-9-7,80.6,70.2,62.6,57.2,48.8,41.0,63,48,24,30.03,29.78,20,7,0,0.00
2013-9-8,82.4,74.1,64.4,62.6,53.0,39.2,64,49,24,29.97,29.68,28,12,0,0.00
2013-9-9,73.4,66.0,57.2,60.8,48.5,41.0,73,54,38,30.12,29.97,17,7,0,0.00
2013-9-10,87.8,76.9,69.8,71.6,67.6,60.8,83,73,58,30.05,29.90,16,8,0,0.00
2013-9-11,93.2,84.4,77.0,73.4,72.0,69.8,89,67,49,29.99,29.83,23,7,0,0.00
2013-9-12,86.0,78.5,71.6,73.4,70.8,66.2,94,78,58,29.87,29.56,22,7,0,0.00
2013-9-13,77.0,70.6,60.8,68.0,59.5,48.2,88,69,44,29.74,29.52,32,12,0,0.00
2013-9-14,68.0,61.0,55.4,48.2,45.6,44.6,67,57,43,30.03,29.74,23,13,0,0.00
2013-9-15,75.2,62.2,53.6,57.2,46.7,37.4,73,59,27,30.10,29.96,20,6,0,0.00
2013-9-16,73.4,66.5,59.0,59.0,53.3,46.4,83,64,38,30.14,29.92,18,9,0,0.00
2013-9-17,66.2,58.1,50.0,46.4,38.7,33.8,63,50,35,30.32,30.14,21,8,0,0.00
2013-9-18,62.6,57.0,53.6,44.6,43.2,41.0,67,60,48,30.25,30.21,9,3,0,0.00
2013-9-19,78.8,66.7,57.2,57.2,49.4,42.8,77,56,29,30.09,29.94,18,5,0,0.00
2013-9-20,80.6,69.6,60.8,60.8,56.6,53.6,83,65,42,29.98,29.87,18,6,0,0.00
2013-9-21,75.2,69.0,60.8,69.8,63.6,59.0,94,83,69,29.91,29.56,39,12,0,0.00
2013-9-22,69.8,65.4,62.6,69.8,57.6,44.6,100,79,43,29.64,29.54,31,13,0,0.00
2013-9-23,68.0,62.8,55.4,44.6,41.4,39.2,63,46,35,29.95,29.83,21,13,0,0.00
2013-9-24,75.2,60.8,50.0,44.6,41.2,37.4,76,51,27,29.97,29.74,21,8,0,0.00
2013-9-25,77.0,64.7,55.4,55.4,44.1,37.4,73,49,29,29.86,29.74,14,4,0,0.00
2013-9-26,71.6,63.6,59.0,57.2,54.7,50.0,88,73,50,30.00,29.83,22,6,0,0.00
2013-9-27,69.8,62.0,57.2,55.4,51.9,48.2,88,70,56,30.16,30.00,13,6,0,0.00
2013-9-28,75.2,65.6,57.2,55.4,51.4,46.4,82,62,38,30.21,30.12,14,4,0,0.00
2013-9-29,73.4,64.2,59.0,59.0,54.7,50.0,94,73,44,30.14,29.96,17,3,0,0.00
2013-9-30,75.2,65.1,57.2,57.2,53.2,48.2,88,68,38,29.99,29.85,9,3,0,0.00
2013-10-1,75.2,73.0,64.4,59.0,57.5,55.4,73,58,53,29.89,29.80,10,5,0,0.00
2013-10-2,86.0,75.2,64.4,59.0,57.2,53.6,78,55,40,29.89,29.76,21,8,0,0.00
2013-10-3,80.6,72.5,64.4,60.8,55.2,46.4,88,56,32,30.00,29.89,13,4,0,0.00
2013-10-4,86.0,74.0,66.2,68.0,62.7,55.4,94,69,43,29.95,29.82,17,4,0,0.00
2013-10-5,77.0,68.6,64.4,66.2,63.4,60.8,94,84,65,29.99,29.90,15,5,0,0.00
2013-10-6,69.8,67.4,64.4,68.0,66.4,64.4,100,97,88,30.00,29.93,13,5,0,0.00
2013-10-7,75.2,70.1,62.6,69.8,65.3,50.0,94,85,63,29.93,29.65,36,15,0,0.00
2013-10-8,68.0,62.0,57.2,48.2,42.7,39.2,67,50,35,30.23,29.87,21,11,0,0.00
2013-10-9,62.6,59.1,53.6,50.0,46.0,39.2,72,62,48,30.30,30.19,20,9,0,0.00
2013-10-10,64.4,59.4,53.6,57.2,51.8,46.4,82,76,63,30.19,29.97,24,14,0,0.00
2013-10-11,68.0,64.6,60.8,60.8,57.1,46.4,88,77,49,29.98,29.90,24,11,0,0.00
2013-10-12,73.4,65.4,60.8,55.4,48.0,33.8,77,54,25,30.18,29.96,24,12,0,0.00
2013-10-13,64.4,60.1,57.2,53.6,51.3,48.2,82,73,59,30.28,30.17,23,10,0,0.00
2013-10-14,69.8,59.0,53.6,51.8,48.5,42.8,82,69,40,30.28,30.13,9,4,0,0.00
2013-10-15,71.6,61.1,55.4,57.2,53.1,46.4,94,76,55,30.17,30.01,14,2,0,0.00
2013-10-16,64.4,60.8,57.2,60.8,55.0,51.8,94,81,68,30.03,29.82,12,4,0,0.00
2013-10-17,75.2,66.4,62.6,64.4,61.5,59.0,94,85,61,29.82,29.59,18,7,0,0.00
2013-10-18,69.8,64.2,59.0,64.4,45.9,39.2,94,53,35,29.88,29.57,25,14,0,0.00
2013-10-19,64.4,59.6,53.6,57.2,45.8,39.2,82,61,42,29.89,29.64,17,6,0,0.00
2013-10-20,64.4,58.2,51.8,55.4,38.6,30.2,82,51,28,29.96,29.64,23,12,0,0.00
2013-10-21,68.0,59.8,51.8,46.4,38.7,32.0,63,47,28,30.06,29.89,23,8,0,0.00
2013-10-22,68.0,60.4,53.6,50.0,46.0,35.6,77,60,44,29.89,29.64,23,10,0,0.00
2013-10-23,55.4,51.0,48.2,42.8,36.0,32.0,71,57,41,29.72,29.51,20,9,0,0.00
2013-10-24,55.4,48.3,42.8,35.6,29.3,21.2,71,50,30,29.92,29.67,25,15,0,0.00
2013-10-25,53.6,48.0,42.8,32.0,29.3,24.8,66,50,33,30.14,29.92,29,13,0,0.00
2013-10-26,57.2,50.4,44.6,35.6,31.5,26.6,66,49,33,30.13,29.80,22,10,0,0.00
2013-10-27,59.0,53.4,50.0,32.0,30.0,26.6,50,41,31,30.03,29.76,25,12,0,0.00
2013-10-28,62.6,53.9,46.4,35.6,31.4,28.4,57,43,30,30.22,30.03,21,6,0,0.00
2013-10-29,55.4,49.3,42.8,33.8,30.7,26.6,58,49,38,30.33,30.22,16,5,0,0.00
2013-10-30,60.8,54.4,46.4,51.8,43.9,32.0,82,68,54,30.27,30.08,10,2,0,0.00
2013-10-31,64.4,60.2,51.8,60.8,56.1,48.2,94,87,72,30.13,29.71,21,7,0,0.00
2013-11-1,69.8,66.1,62.6,62.6,58.1,51.8,94,76,53,29.71,29.44,25,13,0,0.00
2013-11-2,68.0,61.0,55.4,59.0,46.2,35.6,88,60,35,29.69,29.50,23,5,0,0.00
2013-11-3,57.2,46.9,37.4,42.8,31.4,14.0,76,56,38,30.37,29.68,30,15,0,0.00
2013-11-4,46.4,40.4,33.8,26.6,17.1,12.2,53,40,29,30.58,30.37,21,8,0,0.00
2013-11-5,55.4,49.1,41.0,42.8,35.7,23.0,76,60,49,30.58,30.40,14,4,0,0.00
2013-11-6,60.8,54.9,46.4,55.4,46.6,42.8,94,75,52,30.40,29.98,20,7,0,0.00
2013-11-7,64.4,56.6,46.4,59.0,49.1,28.4,94,77,50,29.98,29.64,28,12,0,0.00
2013-11-8,50.0,45.5,41.0,32.0,26.2,21.2,66,48,32,30.13,29.84,33,16,0,0.00
2013-11-9,50.0,45.9,39.2,35.6,27.2,21.2,61,49,32,30.20,29.92,23,11,0,0.00
2013-11-10,60.8,51.1,46.4,39.2,32.3,26.6,66,50,29,29.95,29.68,37,16,0,0.00
2013-11-11,53.6,49.5,44.6,33.8,27.5,23.0,47,43,35,30.11,29.87,30,14,0,0.00
2013-11-12,53.6,39.9,32.0,35.6,23.7,14.0,93,54,38,30.21,29.84,34,18,0,0.00
2013-11-13,39.2,34.9,30.2,21.2,13.7,6.8,60,43,26,30.30,30.20,28,15,0,0.00
2013-11-14,53.6,44.7,35.6,26.6,18.5,10.4,56,37,19,30.20,30.05,24,14,0,0.00
2013-11-15,57.2,50.5,42.8,41.0,30.6,23.0,71,47,27,30.15,30.05,15,5,0,0.00
2013-11-16,60.8,52.5,46.4,48.2,41.1,24.8,94,68,35,30.23,30.13,16,4,0,0.00
2013-11-17,60.8,54.9,48.2,60.8,54.0,46.4,100,97,93,30.19,29.70,13,5,0,0.00
2013-11-18,66.2,60.9,51.8,60.8,39.1,23.0,100,51,26,29.70,29.49,31,17,0,0.00
2013-11-19,51.8,44.5,37.4,30.2,23.8,19.4,56,44,37,30.27,29.68,38,22,0,0.00
2013-11-20,46.4,38.2,32.0,23.0,15.7,8.6,60,42,25,30.54,30.27,21,9,0,0.00
2013-11-21,51.8,44.3,35.6,44.6,30.2,15.8,76,58,44,30.55,30.30,14,5,0,0.00
2013-11-22,57.2,54.1,51.8,51.8,47.3,41.0,94,78,67,30.30,29.80,17,8,0,0.00
2013-11-23,55.4,42.7,32.0,50.0,22.4,5.0,87,46,27,29.95,29.80,40,21,0,0.00
2013-11-24,32.0,26.5,23.0,6.8,2.1,-5.8,46,36,21,30.32,29.93,48,28,0,0.00
2013-11-25,37.4,30.3,23.0,17.6,11.3,5.0,54,46,32,30.42,30.27,28,14,0,0.00
2013-11-26,46.4,38.7,35.6,46.4,26.0,15.8,100,64,39,30.27,29.71,18,6,0,0.00
2013-11-27,60.8,48.7,35.6,60.8,44.6,19.4,100,86,52,29.71,29.24,39,21,0,0.00
2013-11-28,35.6,33.0,30.2,19.4,11.3,5.0,60,42,30,30.40,29.65,36,19,0,0.00
2013-11-29,39.2,34.6,30.2,19.4,15.9,10.4,55,47,38,30.67,30.40,23,10,0,0.00
2013-11-30,39.2,32.3,24.8,30.2,17.5,10.4,70,55,35,30.71,30.30,14,6,0,0.00
2013-12-1,51.8,44.2,37.4,35.6,31.7,26.6,75,62,40,30.30,29.93,9,2,0,0.00
2013-12-2,46.4,43.4,41.0,41.0,37.2,30.2,93,79,53,29.93,29.80,12,3,0,0.00
2013-12-3,57.2,45.5,37.4,39.2,35.5,32.0,93,71,44,29.93,29.76,13,3,0,0.00
2013-12-4,50.0,44.6,39.2,44.6,36.6,32.0,93,74,58,30.06,29.93,13,4,0,0.00
2013-12-5,57.2,51.6,46.4,55.4,50.8,44.6,100,97,88,30.04,29.85,15,6,0,0.00
2013-12-6,55.4,47.5,37.4,55.4,45.6,33.8,100,93,87,30.07,29.78,21,10,0,0.00
2013-12-7,41.0,37.8,32.0,35.6,26.3,15.8,93,66,42,30.45,30.03,23,13,0,0.00
2013-12-8,33.8,31.3,28.4,32.0,19.7,14.0,100,64,51,30.53,30.32,21,9,0,0.00
2013-12-9,39.2,36.6,32.0,39.2,35.6,32.0,100,96,81,30.32,29.89,20,11,0,0.00
2013-12-10,39.2,35.1,32.0,35.6,29.3,15.8,100,80,51,30.06,29.80,22,11,0,0.00
2013-12-11,35.6,31.3,28.4,17.6,14.9,12.2,55,51,38,30.25,30.06,26,16,0,0.00
2013-12-12,30.2,26.3,23.0,15.8,6.3,1.4,59,43,34,30.29,30.11,28,16,0,0.00
2013-12-13,35.6,31.0,24.8,17.6,10.2,3.2,48,42,38,30.26,30.04,33,16,0,0.00
2013-12-14,35.6,27.0,23.0,33.8,22.7,14.0,100,86,41,30.45,29.80,28,13,0,0.00
2013-12-15,39.2,35.8,32.0,37.4,29.6,19.4,100,80,56,29.80,29.40,36,16,0,0.00
2013-12-16,33.8,29.6,26.6,23.0,10.7,5.0,65,46,34,30.18,29.76,28,15,0,0.00
2013-12-17,32.0,26.6,23.0,32.0,21.3,6.8,100,83,43,30.18,29.86,23,7,0,0.00
2013-12-18,37.4,31.4,24.8,23.0,20.5,17.6,86,65,45,30.10,29.86,23,13,0,0.00
2013-12-19,44.6,39.4,32.0,32.0,25.7,17.6,75,58,49,30.12,29.93,20,8,0,0.00
2013-12-20,53.6,46.7,39.2,46.4,34.1,30.2,82,62,47,30.03,29.88,18,6,0,0.00
2013-12-21,60.8,54.3,50.0,51.8,47.9,46.4,94,80,63,29.91,29.79,18,8,0,0.00
2013-12-22,69.8,59.7,53.6,60.8,55.4,50.0,100,86,68,29.86,29.73,21,8,0,0.00
2013-12-23,60.8,54.5,42.8,59.0,51.9,32.0,100,91,66,30.08,29.78,23,7,0,0.00
2013-12-24,42.8,36.4,26.6,32.0,21.0,8.6,81,54,40,30.28,30.00,36,16,0,0.00
2013-12-25,30.2,25.0,19.4,19.4,7.4,3.2,64,48,37,30.47,30.28,34,12,0,0.00
2013-12-26,37.4,34.0,30.2,26.6,22.7,17.6,75,63,48,30.37,30.08,21,7,0,0.00
2013-12-27,41.0,37.0,32.0,24.8,20.2,15.8,65,51,39,30.29,30.18,24,10,0,0.00
2013-12-28,55.4,45.9,37.4,30.2,25.9,23.0,65,47,29,30.23,29.97,23,10,0,0.00
2013-12-29,50.0,44.0,39.2,44.6,34.8,26.6,100,73,40,29.99,29.37,28,9,0,0.00
2013-12-30,46.4,37.5,24.8,37.4,25.5,8.6,81,63,44,30.14,29.57,31,15,0,0.00
2013-12-31,33.8,27.1,21.2,23.0,11.8,5.0,69,53,40,30.22,29.99,25,10,0,0.00
2014-1-1,32.0,27.2,24.8,15.8,10.3,5.0,55,49,40,30.34,30.22,21,11,0,0.00
2014-1-2,32.0,25.9,17.6,26.6,22.6,15.8,100,88,64,30.16,29.63,29,19,0,0.00